Codrington, Antigua

1:59 PM AST on June 23, 2017 (GMT -0400)
Codrington

Weather History for 78862 - March, 2013

Change the Weather History Date:

Tuesday, March 12, 2013

  Actual Average Record
Temperature  
Mean Temperature 77 °F -  
Max Temperature 81 °F 82 °F - ()
Min Temperature 73 °F 73 °F - ()
Cooling Degree Days 12    
Growing Degree Days 27 (Base 50)    
Moisture  
Dew Point 61 °F    
Average Humidity 57    
Maximum Humidity 69    
Minimum Humidity 37    
Precipitation  
Precipitation 0.00 in - - ()
Sea Level Pressure  
Sea Level Pressure 30.00 in    
Wind  
Wind Speed 11 mph ()    
Max Wind Speed 17 mph    
Max Gust Speed -    
Visibility 9.2 miles    
Events      
T = Trace of Precipitation, MM = Missing Value Source: Averaged Metar Reports

Daily Weather History Graph

Daily Weather History Graph

Search for Another Location

Airport or City:

Trip Planner

Search our weather history database for the weather conditions in past years. The results will help you decide how hot, cold, wet, or windy it might be!

Date:

Astronomy

Mar. 12, 2013 Rise Set
Actual Time 6:17 AM AST 6:16 PM AST
Civil Twilight 5:55 AM AST 6:38 PM AST
Nautical Twilight 5:30 AM AST 7:03 PM AST
Astronomical Twilight 5:05 AM AST 7:28 PM AST
Moon 6:34 AM AST (3/12) 7:08 PM AST (3/12)
Length of Visible Light 12h 42m
Length of Day
11h 59m
New Moon, 1% of the Moon is Illuminated
Mar 12
New Moon
Mar 19
First Quarter
Mar 27
Full
Apr 3
Last Quarter
Apr 10
New

Hourly Weather History & Observations

Time (AST) Temp. Heat Index Dew Point Humidity Pressure Visibility Wind Dir Wind Speed Gust Speed Precip Events Conditions
1:00 AM 73.4 °F - 60.8 °F 65% 29.95 in 6.2 mi NNE 9.2 mph - N/A   Partly Cloudy
2:00 AM 74 °F - 62 °F 57% 29.96 in 17 mi NNE 10.4 mph - -   Haze
2:00 AM 73.4 °F - 62.6 °F 69% 29.95 in 6.2 mi NNE 10.4 mph - N/A   Partly Cloudy
3:00 AM 73.4 °F - 60.8 °F 65% 29.95 in 6.2 mi NE 10.4 mph - N/A   Partly Cloudy
4:00 AM 75.2 °F - 62.6 °F 65% 29.95 in 6.2 mi NE 11.5 mph - N/A   Scattered Clouds
5:00 AM 75 °F - 62 °F 55% 29.96 in 17 mi NNE 12.7 mph - -   Haze
5:00 AM 75.2 °F - 62.6 °F 65% 29.95 in 6.2 mi NNE 12.7 mph - N/A   Mostly Cloudy
6:00 AM 73.4 °F - 60.8 °F 65% 29.98 in 6.2 mi NNE 12.7 mph - N/A   Partly Cloudy
7:00 AM 75.2 °F - 60.8 °F 61% 29.98 in 6.2 mi NE 12.7 mph - N/A   Scattered Clouds
8:00 AM 76 °F - 61 °F 51% 30.02 in 19 mi NE 13.8 mph - -   Partly Cloudy
8:00 AM 75.2 °F - 60.8 °F 61% 30.01 in 6.2 mi NE 13.8 mph - N/A   Partly Cloudy
9:00 AM 78.8 °F - 60.8 °F 54% 30.04 in 6.2 mi NE 15.0 mph - N/A   Partly Cloudy
10:00 AM 78.8 °F - 62.6 °F 57% 30.04 in 6.2 mi NE 15.0 mph - N/A   Scattered Clouds
11:00 AM 80 °F - 61 °F 42% 30.06 in 19 mi NE 16.1 mph - -   Scattered Clouds
11:00 AM 78.8 °F - 60.8 °F 54% 30.04 in 6.2 mi NE 16.1 mph - N/A   Partly Cloudy
12:00 PM 80.6 °F 81.1 °F 59.0 °F 48% 30.04 in 6.2 mi NE 17.3 mph - N/A   Partly Cloudy
1:00 PM 80.6 °F 81.1 °F 59.0 °F 48% 30.04 in 6.2 mi NE 15.0 mph - N/A   Partly Cloudy
2:00 PM 80 °F - 58 °F 37% 30.01 in 19 mi NE 16.1 mph - -   Scattered Clouds
2:00 PM 80.6 °F 81.1 °F 59.0 °F 48% 30.01 in 6.2 mi NE 16.1 mph - N/A   Partly Cloudy
3:00 PM 78.8 °F - 59.0 °F 51% 29.98 in 6.2 mi NE 13.8 mph - N/A   Partly Cloudy
4:00 PM 78.8 °F - 60.8 °F 54% 29.98 in 6.2 mi NE 13.8 mph - N/A   Partly Cloudy
5:00 PM 78 °F - 62 °F 48% 29.98 in 19 mi NE 13.8 mph - -   Partly Cloudy
5:00 PM 78.8 °F - 62.6 °F 57% 29.98 in 6.2 mi NE 13.8 mph - N/A   Scattered Clouds
6:00 PM 75.2 °F - 62.6 °F 65% 29.98 in 6.2 mi NE 12.7 mph - N/A   Partly Cloudy
7:00 PM 75.2 °F - 60.8 °F 61% 29.98 in 6.2 mi ENE 11.5 mph - N/A   Partly Cloudy
8:00 PM 74 °F - 60 °F 53% 30.01 in 17 mi NE 11.5 mph - -   Haze
8:00 PM 75.2 °F - 60.8 °F 61% 30.01 in 6.2 mi NE 11.5 mph - N/A   Partly Cloudy
9:00 PM 75.2 °F - 62.6 °F 65% 30.01 in 6.2 mi ENE 10.4 mph - N/A   Scattered Clouds
10:00 PM 75.2 °F - 60.8 °F 61% 30.01 in 6.2 mi ENE 9.2 mph - N/A   Partly Cloudy
11:00 PM 74 °F - 59 °F 49% 30.03 in 17 mi ENE 9.2 mph - -   Haze
11:00 PM 73.4 °F - 59.0 °F 61% 30.01 in 6.2 mi ENE 9.2 mph - N/A   Partly Cloudy